Location: Unspecified
(42.1900°N, 71.3291°W)
Time: 04:23:15
(UTC-05:00)

ISS - Visible Passes

Search period start: 21 February 2018 00:00
Search period end: 03 March 2018 00:00
Orbit: 402 x 407 km, 51.6° (Epoch: 21 February)

Date Brightness Start Highest point End Pass type
(mag) Time Alt. Az. Time Alt. Az. Time Alt. Az.
23 Feb -0.4 06:01:11 10° SSE 06:02:19 11° SE 06:03:27 10° ESE visible
25 Feb -1.6 05:51:09 10° SSW 05:53:57 26° SE 05:56:45 10° ENE visible
26 Feb -0.9 05:00:00 10° SSE 05:01:51 14° SE 05:03:42 10° E visible
27 Feb -3.4 05:42:26 10° SW 05:45:40 64° SE 05:48:55 10° ENE visible
28 Feb -2.3 04:51:36 18° S 04:53:26 33° SE 04:56:25 10° ENE visible
01 Mar -1.2 04:01:50 17° ESE 04:01:50 17° ESE 04:03:35 10° E visible
01 Mar -3.6 05:34:31 12° WSW 05:37:28 56° NNW 05:40:43 10° NE visible
02 Mar -3.9 04:44:35 58° SW 04:45:07 80° SE 04:48:24 10° ENE visible
